Location: Krakow
(50.0830°N, 19.9170°E)
Time: 10:49:21
(UTC+01:00)

Transit 2A - Pass Details

Date: 08 February 2023
Orbit: 591 x 964 km, 66.7° (Epoch: 21 March)

Event Time Altitude Azimuth Distance (km) Brightness Sun altitude
Rises 17:58:28 0° 266° (W) 3,142 11.3 -12.0°
Reaches altitude 10° 18:01:12 10° 281° (W) 2,290 9.7 -12.4°
Maximum altitude 18:05:22 23° 334° (NNW) 1,660 7.9 -13.1°
Drops below altitude 10° 18:09:53 10° 25° (NNE) 2,498 8.3 -13.8°
Enters shadow 18:11:20 - 33° (NNE) 2,943 8.6 -14.1°
Sets 18:13:02 0° 40° (NE) 3,502 - -14.3°
